Erie, CO

8:21 AM MDT on June 28, 2017 (GMT -0600)
Erie Municipal Airport

Weather History for KEIK - June, 2013

Change the Weather History Date:

Saturday, June 29, 2013

  Actual Average (KBJC) Record (KBJC)
Temperature  
Mean Temperature 70 °F -  
Max Temperature 83 °F 84 °F 101 °F (1990)
Min Temperature 58 °F 59 °F 50 °F (1985)
Cooling Degree Days 6    
Growing Degree Days 20 (Base 50)    
Moisture  
Dew Point 56 °F    
Average Humidity 60    
Maximum Humidity 94    
Minimum Humidity 30    
Precipitation  
Precipitation 0.00 in - - ()
Sea Level Pressure  
Sea Level Pressure 30.23 in    
Wind  
Wind Speed 3 mph (NW)    
Max Wind Speed 13 mph    
Max Gust Speed -    
Visibility 10 miles    
Events Thunderstorm    
Averages and records for this station are not official NWS values.
T = Trace of Precipitation, MM = Missing Value Source: NWS Daily Summary

Daily Weather History Graph

Daily Weather History Graph

Search for Another Location

Airport or City:

Trip Planner

Search our weather history database for the weather conditions in past years. The results will help you decide how hot, cold, wet, or windy it might be!

Date:

Astronomy

Jun. 29, 2013 Rise Set
Actual Time 5:34 AM MDT 8:33 PM MDT
Civil Twilight 5:01 AM MDT 9:05 PM MDT
Nautical Twilight 4:19 AM MDT 9:47 PM MDT
Astronomical Twilight 3:31 AM MDT 10:35 PM MDT
Moon 12:03 AM MDT (6/29) 12:48 PM MDT (6/29)
Length of Visible Light 16h 04m
Length of Day
14h 58m
Waning Gibbous, 55% of the Moon is Illuminated
Jun 29
Waning Gibbous
Jun 29
Last Quarter
Jul 8
New
Jul 15
First Quarter
Jul 22
Full

Hourly Weather History & Observations

Time (MDT) Temp. Heat Index Dew Point Humidity Pressure Visibility Wind Dir Wind Speed Gust Speed Precip Events Conditions
12:15 AM 67.5 °F - 54.7 °F 64% 30.28 in 10.0 mi WSW 4.6 mph - N/A   Clear
12:35 AM 66.4 °F - 55.2 °F 67% 30.28 in 10.0 mi Calm Calm - N/A   Clear
12:55 AM 65.3 °F - 55.9 °F 72% 30.28 in 10.0 mi Calm Calm - N/A   Clear
1:15 AM 62.4 °F - 57.0 °F 82% 30.28 in 10.0 mi Calm Calm - N/A   Clear
1:35 AM 63.9 °F - 56.7 °F 77% 30.28 in 10.0 mi NE 3.5 mph - N/A   Clear
1:55 AM 65.3 °F - 56.5 °F 73% 30.27 in 10.0 mi Calm Calm - N/A   Clear
2:15 AM 62.1 °F - 56.5 °F 82% 30.26 in 10.0 mi Calm Calm - N/A   Clear
2:35 AM 61.9 °F - 56.7 °F 83% 30.25 in 10.0 mi Calm Calm - N/A   Clear
2:55 AM 60.1 °F - 57.2 °F 90% 30.25 in 10.0 mi North 5.8 mph - N/A   Clear
3:15 AM 60.1 °F - 57.4 °F 91% 30.25 in 10.0 mi North 4.6 mph - N/A   Clear
3:35 AM 60.8 °F - 57.7 °F 90% 30.25 in 10.0 mi Calm Calm - N/A   Clear
3:55 AM 61.0 °F - 57.6 °F 88% 30.25 in 10.0 mi Calm Calm - N/A   Clear
4:15 AM 60.8 °F - 57.2 °F 88% 30.25 in 10.0 mi Calm Calm - N/A   Clear
4:35 AM 60.6 °F - 57.2 °F 88% 30.25 in 10.0 mi Calm Calm - N/A   Clear
4:55 AM 60.8 °F - 57.2 °F 88% 30.26 in 10.0 mi Calm Calm - N/A   Clear
5:15 AM 60.4 °F - 57.0 °F 88% 30.26 in 10.0 mi Calm Calm - N/A   Clear
5:35 AM 59.0 °F - 56.7 °F 92% 30.26 in 10.0 mi Calm Calm - N/A   Clear
5:55 AM 58.6 °F - 56.7 °F 93% 30.26 in 10.0 mi Calm Calm - N/A   Clear
6:15 AM 59.0 °F - 57.2 °F 94% 30.26 in 10.0 mi Calm Calm - N/A   Clear
6:35 AM 61.5 °F - 58.1 °F 89% 30.27 in 10.0 mi Calm Calm - N/A   Clear
6:55 AM 63.5 °F - 59.0 °F 85% 30.27 in 10.0 mi Calm Calm - N/A   Clear
7:15 AM 65.3 °F - 58.8 °F 80% 30.27 in 10.0 mi Calm Calm - N/A   Clear
7:35 AM 66.2 °F - 57.6 °F 74% 30.27 in 10.0 mi NNW 5.8 mph - N/A   Clear
7:55 AM 64.6 °F - 57.7 °F 78% 30.28 in 10.0 mi North 4.6 mph - N/A   Clear
8:15 AM 67.6 °F - 57.6 °F 70% 30.28 in 10.0 mi North 4.6 mph - N/A   Clear
8:35 AM 67.8 °F - 57.7 °F 70% 30.28 in 10.0 mi NNE 5.8 mph - N/A   Clear
8:55 AM 70.3 °F - 59.0 °F 67% 30.28 in 10.0 mi NNW 6.9 mph - N/A   Clear
9:15 AM 70.2 °F - 56.1 °F 61% 30.27 in 10.0 mi North 6.9 mph - N/A   Clear
9:35 AM 72.3 °F - 54.5 °F 53% 30.27 in 10.0 mi North 6.9 mph - N/A   Clear
9:55 AM 73.8 °F - 54.5 °F 51% 30.27 in 10.0 mi NNW 8.1 mph - N/A   Clear
10:15 AM 74.8 °F - 54.7 °F 49% 30.27 in 10.0 mi NNW 10.4 mph - N/A Thunderstorm Clear
10:35 AM 74.7 °F - 54.5 °F 49% 30.26 in 10.0 mi NNE 10.4 mph - N/A   Clear
10:55 AM 76.1 °F - 53.8 °F 46% 30.25 in 10.0 mi North 8.1 mph - N/A   Clear
11:15 AM 77.0 °F - 54.9 °F 46% 30.25 in 10.0 mi NNE 5.8 mph - N/A   Clear
11:35 AM 77.9 °F - 55.8 °F 46% 30.25 in 10.0 mi North 5.8 mph - N/A Thunderstorm Thunderstorm
11:55 AM 78.1 °F - 55.2 °F 45% 30.24 in 10.0 mi NNE 6.9 mph - N/A   Clear
12:15 PM 79.3 °F - 54.1 °F 42% 30.25 in 10.0 mi NNE 3.5 mph - N/A   Clear
12:35 PM 80.8 °F 80.6 °F 54.9 °F 41% 30.25 in 10.0 mi NW 9.2 mph - N/A   Clear
12:55 PM 80.8 °F 80.6 °F 54.9 °F 41% 30.24 in 10.0 mi WNW 4.6 mph - N/A   Clear
1:15 PM 82.2 °F - 52.2 °F 35% 30.23 in 10.0 mi WNW 3.5 mph - N/A Thunderstorm Clear
1:35 PM 79.7 °F - 52.7 °F 39% 30.23 in 10.0 mi NW 4.6 mph - N/A   Scattered Clouds
1:55 PM 79.2 °F - 52.3 °F 39% 30.22 in 10.0 mi NNW 8.1 mph - N/A   Scattered Clouds
2:15 PM 78.1 °F - 56.7 °F 48% 30.22 in 10.0 mi West 12.7 mph - N/A   Scattered Clouds
2:35 PM 75.7 °F - 56.1 °F 50% 30.23 in 10.0 mi West 11.5 mph - N/A   Mostly Cloudy
2:55 PM 75.4 °F - 55.8 °F 50% 30.23 in 10.0 mi West 10.4 mph - N/A   Mostly Cloudy
3:15 PM 76.6 °F - 55.9 °F 49% 30.23 in 10.0 mi West 6.9 mph - N/A   Overcast
3:35 PM 79.0 °F - 54.5 °F 43% 30.20 in 10.0 mi WNW 4.6 mph - N/A   Scattered Clouds
3:55 PM 83.3 °F - 48.4 °F 30% 30.18 in 10.0 mi Calm Calm - N/A   Clear
4:15 PM 81.9 °F - 49.5 °F 32% 30.19 in 10.0 mi Calm Calm - N/A   Clear
4:35 PM 81.7 °F 81.0 °F 53.8 °F 38% 30.19 in 10.0 mi WNW 4.6 mph - N/A   Clear
4:55 PM 81.9 °F 81.2 °F 54.3 °F 39% 30.19 in 10.0 mi West 6.9 mph - N/A   Clear
5:15 PM 79.7 °F - 55.4 °F 43% 30.17 in 10.0 mi West 5.8 mph - N/A   Clear
5:35 PM 79.9 °F - 54.7 °F 42% 30.17 in 10.0 mi WSW 4.6 mph - N/A   Clear
5:55 PM 81.9 °F - 52.5 °F 36% 30.16 in 10.0 mi WSW 6.9 mph - N/A   Clear
6:15 PM 83.5 °F - 51.1 °F 32% 30.15 in 10.0 mi WSW 4.6 mph - N/A   Clear
6:35 PM 83.8 °F - 50.7 °F 32% 30.15 in 10.0 mi Calm Calm - N/A   Clear
6:55 PM 83.7 °F - 49.8 °F 31% 30.15 in 10.0 mi SSW 3.5 mph - N/A   Clear
7:15 PM 82.0 °F - 50.4 °F 33% 30.15 in 10.0 mi SW 3.5 mph - N/A   Clear
7:35 PM 81.1 °F - 52.9 °F 37% 30.15 in 10.0 mi Calm Calm - N/A   Clear
7:55 PM 79.7 °F - 54.3 °F 41% 30.15 in 10.0 mi Calm Calm - N/A   Clear
8:15 PM 77.0 °F - 58.8 °F 53% 30.15 in 10.0 mi Calm Calm - N/A   Clear
8:35 PM 76.5 °F - 58.1 °F 53% 30.16 in 10.0 mi Calm Calm - N/A   Clear
8:55 PM 74.1 °F - 58.6 °F 58% 30.16 in 10.0 mi Calm Calm - N/A   Clear
9:15 PM 73.4 °F - 57.7 °F 58% 30.17 in 10.0 mi Calm Calm - N/A   Clear
9:35 PM 71.6 °F - 59.5 °F 66% 30.18 in 10.0 mi Calm Calm - N/A   Clear
9:55 PM 71.1 °F - 61.3 °F 71% 30.18 in 10.0 mi Calm Calm - N/A   Clear
10:15 PM 69.1 °F - 60.6 °F 74% 30.20 in 10.0 mi Calm Calm - N/A   Clear
10:35 PM 69.8 °F - 60.8 °F 73% 30.20 in 10.0 mi Calm Calm - N/A   Scattered Clouds
10:55 PM 69.6 °F - 56.3 °F 63% 30.21 in 10.0 mi North 4.6 mph - N/A   Scattered Clouds
11:15 PM 69.8 °F - 54.7 °F 59% 30.21 in 10.0 mi Calm Calm - N/A   Clear
11:35 PM 70.3 °F - 52.3 °F 53% 30.22 in 10.0 mi Calm Calm - N/A   Clear
11:55 PM 68.5 °F - 52.7 °F 57% 30.21 in 10.0 mi Calm Calm - N/A   Clear